#timestamp,LO_Frequency,Hit,StdDev 
1556402415.8,286046999.7,N
1556402435.6,286047000.3,N
1556402455.5,286047002.2,N
1556402475.3,286047002.6,N
1556402495.1,286047001.6,N
1556402515.9,286047001.6,N
1556402535.7,286047000.2,N
1556402555.5,286047004.0,N
1556402575.4,286047004.3,N
1556402595.2,286047003.1,N
1556402615.1,286047004.4,N
1556402616.0,286047004.4,N
1556402635.8,286047001.9,N
1556402655.6,286047001.3,N
1556402675.5,286047001.8,N
1556402695.3,286047001.4,N
1556402715.1,286047002.2,N
1556402735.9,286047001.9,N
1556402755.7,286047003.5,N
1556402775.6,286047003.5,N
1556402795.4,286047003.5,N
1556402815.2,286047001.5,N
1556402835.1,286047002.3,N
1556402836.0,286047002.3,N
1556402855.8,286047000.2,N
1556402875.6,286047002.7,N
1556402895.5,286047002.6,N
1556402915.3,286046999.8,N
1556402935.2,286047001.6,N
1556402955.9,286047003.7,N
1556402975.7,286047005.0,Y
1556402995.6,286047002.8,P
1556403015.4,286046999.7,N
1556403035.3,286047000.2,N
1556403055.1,286047001.8,N
1556403056.0,286047001.8,N
1556403075.8,286047002.7,N
1556403095.7,286046999.9,N
1556403115.5,286047000.2,N
1556403135.4,286047000.3,N
1556403155.2,286047000.5,N
1556403175.0,286047002.5,N
1556403175.9,286047002.5,N
1556403195.8,286047002.5,N
1556403215.6,286046999.7,N
1556403235.4,286047002.6,N
1556403255.3,286047000.1,N
1556403275.1,286047000.3,N
1556403295.9,286046999.7,N
1556403315.7,286046999.8,N
1556403335.5,286047000.9,N
1556403355.4,286046998.2,N
1556403375.2,286046999.9,N
1556403395.0,286046998.5,N
1556403395.9,286046998.5,N
1556403415.8,286046998.5,N
1556403435.6,286047001.1,N
1556403455.5,286047000.1,N
1556403475.3,286047002.2,N
1556403495.1,286046998.7,N
1556403515.9,286046997.0,N
1556403535.7,286046997.4,N
1556403555.5,286046997.8,N
1556403575.4,286046997.8,N
1556403595.2,286046997.2,N
1556403615.0,286046996.9,N
1556403616.0,286046996.9,N
1556403635.8,286046997.0,N
1556403655.6,286046998.9,N
1556403675.5,286047000.5,N
1556403695.3,286046998.8,N
1556403715.1,286046998.8,N
1556403735.9,286046998.7,N
1556403755.7,286047000.6,N
1556403775.5,286046998.6,N
1556403795.4,286047000.7,N
1556403815.2,286047002.4,N
1556403835.1,286047001.6,N
1556403836.0,286047001.6,N
1556403855.8,286047004.4,N
1556403875.6,286047005.9,Y
1556403895.5,286047005.8,P
1556403915.3,286047007.2,N
1556403935.1,286047004.8,N
1556403955.9,286047004.9,N
1556403975.7,286047001.4,N
1556403995.6,286046999.9,N
1556404015.4,286047002.7,N
1556404035.2,286047000.0,N
1556404055.1,286046999.9,N
1556404056.0,286046999.9,N
1556404075.8,286047001.5,N
1556404095.6,286047002.2,N
1556404115.5,286047002.0,N
1556404135.3,286047002.7,N
1556404155.2,286047000.4,N
1556404175.9,286046998.2,N
1556404195.7,286047000.4,N
1556404215.6,286047002.6,N
1556404235.4,286047000.1,N
1556404255.2,286046998.1,N
1556404275.1,286047000.3,N
1556404276.0,286047000.3,N
1556404295.8,286046999.9,N
1556404315.7,286047000.2,N
1556404335.5,286046998.5,N
1556404355.3,286046998.8,N
1556404375.2,286046998.2,N
1556404395.9,286047000.8,N
1556404415.7,286047000.8,N
1556404435.6,286046999.6,N
1556404455.4,286046996.5,N
1556404475.2,286046999.5,N
1556404495.1,286046996.6,N
1556404496.0,286046996.6,N
1556404515.8,286046996.9,N
1556404535.7,286046999.6,N
1556404555.5,286046997.1,N
1556404575.3,286046997.3,N
1556404595.2,286046997.6,N
1556404615.0,286046996.5,N
1556404615.9,286046996.5,N
1556404635.8,286046998.7,N
1556404655.6,286046997.1,N
1556404675.4,286046996.6,N
1556404695.3,286046999.5,N
1556404715.1,286046997.4,N
1556404735.9,286046995.4,N
1556404755.7,286046997.9,N
1556404775.5,286046995.6,N
1556404795.4,286046998.0,N
1556404815.2,286046997.9,N
1556404835.1,286046997.2,N
1556404836.0,286046997.2,N
1556404855.8,286046998.0,N
1556404875.6,286046996.2,N
1556404895.5,286046995.9,N
1556404915.3,286046995.5,Y
1556404935.2,286046999.1,P
1556404955.9,286046997.9,N
1556404975.7,286046994.9,P
1556404995.6,286046999.1,N
1556405015.4,286046998.3,N
1556405035.2,286047001.0,N
1556405055.1,286046998.5,N
1556405056.0,286046998.5,N
1556405075.8,286046999.3,N
1556405095.7,286046998.6,N
1556405115.5,286046997.7,N
1556405135.3,286046994.9,Y
1556405155.2,286046999.2,P
1556405175.0,286047002.3,P
1556405175.9,286047002.3,N
1556405195.7,286047001.9,N
1556405215.6,286047002.7,N
1556405235.4,286047000.0,N
1556405255.3,286047000.9,N
1556405275.1,286047000.0,N
1556405276.0,286047000.0,N
1556405295.8,286047000.3,N
1556405315.7,286047000.2,N
1556405335.5,286047002.3,N
1556405355.3,286047001.6,N
1556405375.2,286047006.0,Y
1556405395.0,286047003.6,P
1556405395.9,286047003.6,N
1556405415.8,286047001.3,N
1556405435.4,286047002.3,N
1556405455.3,286047000.4,N
1556405475.1,286046998.1,N
1556405495.9,286046999.9,N
1556405515.7,286047000.4,N
1556405535.5,286047000.8,N
1556405555.4,286046999.0,N
1556405575.2,286046998.4,N
1556405595.0,286047000.8,N
1556405595.9,286047000.8,N
1556405615.8,286047002.2,N
1556405635.6,286047003.4,N
1556405655.5,286047002.9,N
1556405675.3,286047004.3,N
1556405695.1,286047002.2,N
1556405715.9,286047001.7,N
1556405735.7,286047000.8,N
1556405755.5,286047000.2,N
1556405775.4,286047002.5,N
1556405795.2,286047000.1,N
1556405815.1,286047000.1,N
1556405816.0,286047000.1,N
1556405835.8,286047002.3,N
1556405855.6,286047001.3,N
1556405875.5,286047003.7,N
1556405895.3,286047002.5,N
1556405915.1,286046999.7,N
1556405935.9,286047002.5,N
1556405955.7,286047002.1,N
1556405975.6,286047002.5,N
1556405995.4,286047002.1,N
